Regional Weather Roundup
Issued by NWS

Home | Current Version | Previous Version | Graphics & Text | Print | Product List | Glossary On
Versions: 1 2 3 4 5 6 7 8 9 10 11 12 13 14 15 16 17 18 19 20 21 22 23 24 25 26 27 28 29 30 31 32 33 34 35 36 37 38 39 40 41 42 43 44 45 46 47 48 49 50
000
ASUS43 KMKX 201900
RWRWI

WISCONSIN REGIONAL WEATHER ROUNDUP
NATIONAL WEATHER SERVICE MILWAUKEE/SULLIVAN WI
200 PM CDT WED AUG 20 2014

NOTE: "FAIR" INDICATES FEW OR NO CLOUDS BELOW 12,000 FEET WITH NO
SIGNIFICANT WEATHER AND/OR OBSTRUCTIONS TO VISIBILITY.

WIZ001-002-006>008-014>016-023>028-202000-
NORTHWEST WISCONSIN

CITY           SKY/WX    TMP DP  RH WIND       PRES   REMARKS
SUPERIOR ARPT  PTSUNNY   72  60  64 CALM      29.87F
ASHLAND        CLOUDY    70  61  73 E5        29.91S
HAYWARD        CLOUDY    70  59  68 VRB3      29.90F
SIREN          CLOUDY    73  60  63 SE6       29.89R
RICE LAKE      CLOUDY    72  59  64 CALM      29.91R
LADYSMITH      PTSUNNY   72  61  67 E8        29.91F
EAU CLAIRE     NOT AVBL
MENOMONIE      PTCLDY    77  62  59 E3        29.88F
NEW RICHMOND   CLOUDY    75  62  64 S3        29.89R
OSCEOLA        PTSUNNY   77  64  63 S6        29.91R
$$

WIZ003>005-009-010-017-018-202000-
NORTH CENTRAL WISCONSIN

CITY           SKY/WX    TMP DP  RH WIND       PRES   REMARKS
WOODRUFF       CLOUDY    71  62  74 CALM      29.92F
RHINELANDER    CLOUDY    67  58  72 N3        29.92F
EAGLE RIVER    CLOUDY    67  57  71 N3        29.92S
LAND O LAKES   CLOUDY    66  59  77 NW3       29.94R
PHILLIPS       CLOUDY    67  58  73 NE3       29.91S
TOMAHAWK       CLOUDY    67  58  72 CALM      29.92S
MEDFORD        CLOUDY    69  60  74 N3        29.90F
MERRILL        CLOUDY    69  61  76 CALM      29.90F
$$

WIZ029-030-035-036-043>047-202000-
CENTRAL WISCONSIN

CITY           SKY/WX    TMP DP  RH WIND       PRES   REMARKS
WAUSAU         LGT RAIN  70  61  73 S6        29.89F
MOSINEE        CLOUDY    70  63  78 CALM      29.92F
MARSHFIELD     MOSUNNY   72  61  68 VRB5      29.91S
STEVENS POINT  CLOUDY    67  60  78 N5        29.91F
WAUPACA        PTSUNNY   74  62  65 W6        29.90F
WAUTOMA        NOT AVBL
WISC RAPIDS    PTSUNNY   76  62  62 N5        29.90F
CAMP DOUGLAS   NOT AVBL
$$

WIZ011>013-019>022-031-037>040-048>050-202000-
NORTHEAST WISCONSIN

CITY           SKY/WX    TMP DP  RH WIND       PRES   REMARKS
ANTIGO         CLOUDY    68  61  76 NW3       29.92S
STURGEON BAY   CLOUDY    66  61  82 W6        29.90S
GREEN BAY      CLOUDY    69  62  78 CALM      29.90S
MANITOWOC      CLOUDY    72  63  73 NW5       29.90S
APPLETON       PTSUNNY   70  61  73 W5        29.91S
CLINTONVILLE   CLOUDY    68  59  73 CALM      29.90S
OSHKOSH        PTSUNNY   74  66  76 SE8       29.89S
$$

WIZ032>034-041-042-053>061-202000-
SOUTHWEST WISCONSIN

CITY           SKY/WX    TMP DP  RH WIND       PRES   REMARKS
LA CROSSE      MOSUNNY   83  65  54 CALM      29.85F HX  85
SPARTA         MOSUNNY   80  62  54 NW5       29.88S HX  81
VIROQUA        FAIR      82  64  56 W5        29.89S HX  83
BOSCOBEL       MOSUNNY   84  66  54 W8        29.86F HX  86
PRAIRIE DU CHI PTSUNNY   82  64  54 S6        29.85F HX  84
PLATTEVILLE    FAIR      82  67  61 SW9       29.89F HX  84
$$

WIZ056-057-062-063-064-067-068-202000-
SOUTH CENTRAL WISCONSIN

CITY           SKY/WX    TMP DP  RH WIND       PRES   REMARKS
BARABOO/DELLS  MOSUNNY   83  60  45 W8        29.87F HX  83
LONE ROCK      NOT AVBL
WATERTOWN      SUNNY     81  66  60 W9        29.88F HX  83
MADISON        PTSUNNY   84  64  50 VRB5      29.87F HX  85
MIDDLETON      FAIR      84  62  47 W7        29.88F HX  84
MONROE         MOSUNNY   82  66  57 SW12G18   29.89F HX  85
JANESVILLE     NOT AVBL
$$

WIZ051-052-058>065-066-070>072-202000-
SOUTHEAST WISCONSIN

CITY           SKY/WX    TMP DP  RH WIND       PRES   REMARKS
MILWAUKEE      MOSUNNY   75  66  73 E13       29.88F
WAUKESHA       MOSUNNY   79  63  57 W5        29.90F HX  80
MILWAUKEE/TIMM PTSUNNY   81  63  54 NW6       29.89S HX  82
RACINE         PTSUNNY   77  66  68 SE12      29.90F
BURLINGTON     MOSUNNY   80  65  58 W5        29.89F HX  82
KENOSHA        MOSUNNY   83  66  56 SW7       29.89F HX  85
FOND DU LAC    MOSUNNY   77  66  68 NE8       29.89F
SHEBOYGAN      PTSUNNY   76  63  64 NW8       29.89S
WEST BEND      PTSUNNY   79  63  57 W7        29.89F HX  80
JUNEAU         PTSUNNY   79  40  25 W8        29.90S
$$

LSZ147-162-202000-
LAKE SUPERIOR

STATION/POSITION TIME  TEMP    WIND        PRES    WAVE
                       AIR SEA DIR/SP/G            HT/PER
                 (UTC) (F)     (DEG/KT/KT) (MB)    (FT/S)
W MID LAKE BUOY  1750   59 57   30/  6/  6 1012.2F   1
DEVILS ISLAND    1800   65     230/  5/  7 1012.6R
PORT WING        1800   66     310/  6/  6 1012.5S
SAXON HARBOR     1800   66      40/  4/  5 1012.9S
$$

LMZ867-665-643>646-202000-
LAKE MICHIGAN

STATION/POSITION TIME  TEMP    WIND        PRES    WAVE
                       AIR SEA DIR/SP/G            HT/PER
                 (UTC) (F)     (DEG/KT/KT) (MB)    (FT/S)
N MID LAKE BUOY  1750   62 62  290/  6/  8 1011.0R   1/ 4
NORTHPORT PIER   1800   64     310/  8/ 10 1011.5S
SISTER BAY       1811   70     330/  7/  8   N/A
KEWAUNEE LAKESHO 1800   67      90/  4/  5 1011.5R
SHEBOYGAN LAKESH 1800   66 65  120/  6/  7 1012.6R
ATWATER BUOY     1800   69     130/  8/ 10 1013.6R
MILWAUKEE LAKESH 1800   69     110/  6/  7   N/A
S MID LAKE BUOY  1750   69 70  190/  4/  4 1013.0R   0
KENOSHA   LAKESH 1800   76     120/  9/ 12 1011.9R
$$

TC  - TEMPERATURE IN CELSIUS
VSB - VISIBILITY IN STATUTE MILES
WCI - WIND CHILL INDEX
HX  - HEAT INDEX




USA.gov is the U.S. government's official web portal to all federal, state and local government web resources and services.